[[{"header":{"parameterUnit":"m.s-1","parameterCategory":1,"la1":30.2991,"la2":30.254,"lo1":-89.0895,"lo2":-89.0444,"dy":0.0017,"dx":0.0017,"nx":28,"ny":28,"refTime":"2025-01-28T09:00:00:Z","depth":0,"parameterNumber":2,"parameterNumberName":"U-component_of_WINDS"},"data":[0,0,0,0,0,0,0,0,0,0,0,0,0,0,0,0,0,0,0,0,0,0,0,0,0,0,0,0,0,0,0,0,0,0,0,0,0,0,0,0,0,0,0,0,0,0,0,0,0,0,0,0,0,0,0,0,0,0,-0.7514,-0.7513,0,-0.7444,-0.7443,-0.7442,-0.7364,-0.7362,-0.7361,-0.736,-0.7287,-0.7287,-0.7286,0,0,0,0,0,0,0,0,0,0,0,0,0,-0.7581,-0.758,-0.7514,-0.7513,-0.7513,-0.7444,-0.7443,-0.7442,-0.7364,-0.7362,-0.7361,-0.736,-0.7288,-0.7287,-0.7286,0,0,0,0,0,0,0,0,0,0,0,0,0,-0.7536,-0.758,-0.7514,-0.7465,-0.746,-0.7444,-0.7443,-0.7442,-0.7364,-0.7362,-0.7361,-0.7359,-0.7288,-0.7287,-0.7286,-0.7312,0,0,-0.7282,-0.7281,0,0,0,0,0,0,0,0,-0.7538,-0.7533,-0.7473,-0.7469,-0.7463,-0.7411,-0.744,-0.7398,-0.7364,-0.7401,-0.736,-0.7358,-0.733,-0.7325,-0.7316,-0.7309,-0.7306,-0.7282,-0.7281,-0.728,-0.728,0,0,0,0,0,0,0,-0.7541,-0.7536,-0.7486,-0.7473,-0.7466,-0.7447,-0.7438,-0.7432,-0.7376,-0.7397,-0.7391,-0.7384,-0.7327,-0.7317,-0.7313,-0.7305,-0.7282,-0.728,-0.728,-0.7279,-0.7318,-0.732,0,0,0,0,0,0,-0.7552,-0.7539,-0.7489,-0.7484,-0.7497,-0.7447,-0.7438,-0.7429,-0.7376,-0.7366,-0.7386,-0.7381,-0.732,-0.7315,-0.731,-0.7339,-0.728,-0.7279,-0.7278,-0.7316,-0.7318,-0.732,0,0,0,0,0,0,-0.7554,-0.7548,-0.7491,-0.751,-0.7501,-0.7448,-0.7439,-0.7429,-0.7419,-0.7367,-0.7356,-0.7386,-0.7319,-0.7312,-0.7313,-0.7336,-0.7278,-0.7277,-0.7314,-0.7317,-0.7319,-0.7397,0,0,0,0,0,0,-0.7556,-0.7549,-0.7559,-0.7511,-0.7501,-0.7495,-0.744,-0.7429,-0.7417,-0.741,-0.7365,-0.7355,-0.7317,-0.7315,-0.7312,-0.7333,-0.7276,-0.7312,-0.7315,-0.7318,-0.7392,-0.7402,-0.741,0,0,0,0,0,-0.7559,-0.7583,-0.756,-0.7554,-0.7511,-0.7497,-0.7491,-0.7446,-0.7419,-0.7429,-0.7395,-0.7357,-0.7334,-0.7316,-0.7311,-0.7332,-0.731,-0.7314,-0.7318,-0.7388,-0.74,-0.741,0,0,0,0,0,0,-0.7635,-0.7576,-0.7549,-0.7559,-0.7534,-0.7483,-0.7494,-0.746,-0.7441,-0.7435,-0.738,-0.7371,-0.7378,-0.7355,-0.7336,-0.7356,-0.7316,-0.732,-0.7371,-0.7382,-0.7391,-0.7396,-0.7275,0,0,0,0,0,-0.7653,-0.7646,-0.7594,-0.7608,-0.7596,-0.7548,-0.7539,-0.7507,-0.7479,-0.7467,-0.7434,-0.7408,-0.7394,-0.7387,-0.7371,-0.7388,-0.7378,-0.74,-0.741,-0.7417,-0.7421,-0.7429,-0.7439,-0.7334,-0.7334,-0.7333,0,0,-0.7689,-0.7656,-0.7655,-0.7622,-0.7599,-0.7593,-0.7539,-0.7535,-0.753,-0.7466,-0.7465,-0.744,-0.7407,-0.7416,-0.7419,-0.7397,-0.7448,-0.7422,-0.7429,-0.7428,-0.7434,-0.7444,-0.7453,-0.7336,-0.7336,-0.7335,0,0,-0.7753,-0.7728,-0.7736,-0.7714,-0.768,-0.7647,-0.765,-0.7605,-0.7586,-0.7584,-0.7537,-0.753,-0.7508,-0.7487,-0.7474,-0.7532,-0.7496,-0.7528,-0.7576,-0.7585,-0.7593,-0.76,-0.7622,-0.763,-0.7532,-0.7532,-0.7532,0,-0.7804,-0.7793,-0.7745,-0.7744,-0.7732,-0.7675,-0.7684,-0.7664,-0.7627,-0.7619,-0.7596,-0.7569,-0.7542,-0.7546,-0.7561,-0.7551,-0.7553,-0.7533,-0.7596,-0.7602,-0.7608,-0.7628,-0.7636,-0.7536,-0.7536,-0.7536,-0.7535,0,-0.7857,-0.785,-0.7862,-0.7828,-0.7816,-0.782,-0.7773,-0.7768,-0.7737,-0.7707,-0.7707,-0.7673,-0.7651,-0.7649,-0.7619,-0.7649,-0.7637,-0.7606,-0.7565,-0.7623,-0.7641,-0.7648,-0.7542,-0.7541,-0.754,-0.7539,0,0,-0.7966,-0.7906,-0.7911,-0.7896,-0.7854,-0.7848,-0.785,-0.7829,-0.7826,-0.7802,-0.7803,-0.7786,-0.7757,-0.7742,-0.7709,-0.7716,-0.7766,-0.7684,-0.7682,-0.7701,-0.7798,-0.7823,-0.7832,-0.7742,-0.7743,-0.7744,-0.7801,0,-0.8023,-0.8023,-0.7981,-0.7993,-0.7987,-0.7934,-0.7935,-0.791,-0.7883,-0.7874,-0.7843,-0.7833,-0.7795,-0.7786,-0.7791,-0.7759,-0.7785,-0.7754,-0.7742,-0.7742,-0.7753,-0.7841,-0.7867,-0.7923,-0.7808,-0.7809,-0.781,0,-0.809,-0.8071,-0.8083,-0.8042,-0.8038,-0.804,-0.8018,-0.801,-0.7981,-0.796,-0.7944,-0.7907,-0.7906,-0.7868,-0.7867,-0.7847,-0.784,-0.7823,-0.7824,-0.7822,-0.778,-0.7842,-0.7939,-0.7948,-0.782,-0.7819,-0.7819,0,-0.817,-0.8147,-0.8151,-0.8139,-0.8092,-0.8095,-0.8075,-0.8044,-0.8035,-0.8015,-0.8009,-0.7989,-0.7979,-0.7965,-0.7924,-0.7899,-0.7928,-0.7886,-0.7911,-0.7913,-0.792,-0.792,-0.8018,-0.7915,-0.7915,-0.7914,-0.7914,0,-0.8238,-0.8248,-0.8187,-0.8189,-0.8199,-0.815,-0.8161,-0.8136,-0.8109,-0.8107,-0.8059,-0.8057,-0.8002,-0.7995,-0.7962,-0.7967,-0.7963,-0.7946,-0.7938,-0.7951,-0.7953,-0.7946,-0.7941,-0.7917,-0.7916,-0.7916,-0.7915,0,-0.8329,-0.8288,-0.8289,-0.8245,-0.8234,-0.8243,-0.8204,-0.8205,-0.8175,-0.8173,-0.8169,-0.8122,-0.8111,-0.8068,-0.8046,-0.8025,-0.804,-0.8023,-0.805,-0.8045,-0.8073,-0.8071,-0.817,-0.8181,-0.8071,-0.8072,-0.8073,0,-0.8375,-0.8381,-0.8338,-0.8333,-0.8315,-0.8308,-0.8298,-0.8251,-0.8243,-0.8211,-0.8216,-0.8201,-0.8187,-0.8171,-0.8135,-0.8119,-0.8101,-0.8137,-0.8098,-0.8112,-0.8102,-0.8103,-0.8104,-0.8145,-0.8147,-0.8148,-0.8149,0,-0.8463,-0.8443,-0.843,-0.8412,-0.8402,-0.8385,-0.8365,-0.8364,-0.8311,-0.8305,-0.8293,-0.8282,-0.8261,-0.8247,-0.8224,-0.8204,-0.8168,-0.8161,-0.8166,-0.818,-0.8196,-0.8189,-0.8074,-0.8159,-0.8158,-0.8157,-0.8157,-0.8156,-0.8533,-0.8536,-0.8507,-0.8495,-0.8475,-0.8458,-0.8457,-0.8428,-0.8417,-0.8397,-0.8369,-0.8362,-0.8333,-0.83,-0.8282,-0.8276,-0.8255,-0.8263,-0.8265,-0.8267,-0.8274,-0.8197,-0.8271,-0.8271,-0.827,-0.827,-0.827,0,-0.8618,-0.8597,-0.8587,-0.8561,-0.8552,-0.852,-0.8497,-0.8492,-0.8485,-0.8462,-0.8449,-0.8437,-0.8423,-0.8387,-0.837,-0.8372,-0.8355,-0.8369,-0.8368,-0.8365,-0.8293,-0.829,-0.8383,-0.8383,-0.8383,-0.8383,-0.8383,-0.8383,-0.8662,-0.8666,-0.8643,-0.8638,-0.8616,-0.8609,-0.8598,-0.8583,-0.8564,-0.8552,-0.8541,-0.8517,-0.8489,-0.847,-0.8457,-0.8446,-0.8443,-0.8462,-0.8447,-0.838,-0.8369,-0.8359,-0.8357,-0.8462,-0.8462,-0.8519,-0.852,-0.852]},{"header":{"parameterUnit":"m.s-1","parameterCategory":1,"la1":30.2991,"la2":30.254,"lo1":-89.0895,"lo2":-89.0444,"dy":0.0017,"dx":0.0017,"nx":28,"ny":28,"refTime":"2025-01-28T09:00:00:Z","depth":0,"parameterNumber":3,"parameterNumberName":"V-component_of_WINDS"},"data":[0,0,0,0,0,0,0,0,0,0,0,0,0,0,0,0,0,0,0,0,0,0,0,0,0,0,0,0,0,0,0,0,0,0,0,0,0,0,0,0,0,0,0,0,0,0,0,0,0,0,0,0,0,0,0,0,0,0,1.0481,1.0481,0,1.0497,1.0497,1.0498,1.05,1.05,1.05,1.05,1.0517,1.0517,1.0518,0,0,0,0,0,0,0,0,0,0,0,0,0,1.0451,1.0452,1.0481,1.0481,1.0481,1.0497,1.0497,1.0498,1.05,1.05,1.05,1.05,1.0516,1.0517,1.0518,0,0,0,0,0,0,0,0,0,0,0,0,0,1.0466,1.0452,1.0481,1.0484,1.0485,1.0497,1.0497,1.0498,1.05,1.05,1.05,1.05,1.0516,1.0517,1.0518,1.0527,0,0,1.052,1.0521,0,0,0,0,0,0,0,0,1.0465,1.0467,1.0484,1.0484,1.0485,1.0497,1.0493,1.0508,1.0501,1.0495,1.05,1.05,1.051,1.0511,1.0515,1.0528,1.0529,1.0521,1.0521,1.0521,1.0522,0,0,0,0,0,0,0,1.0464,1.0466,1.0487,1.0484,1.0485,1.0485,1.0487,1.0496,1.0503,1.0495,1.0495,1.0497,1.051,1.0514,1.0515,1.0529,1.052,1.0521,1.0522,1.0522,1.0552,1.0552,0,0,0,0,0,0,1.0462,1.0465,1.0487,1.0488,1.0474,1.0486,1.0488,1.0493,1.0503,1.0505,1.0497,1.0497,1.0513,1.0514,1.0516,1.0528,1.0521,1.0522,1.0523,1.0551,1.0552,1.0552,0,0,0,0,0,0,1.0462,1.0464,1.0486,1.0477,1.0479,1.0487,1.0492,1.0493,1.0497,1.0505,1.0506,1.05,1.0513,1.0515,1.0525,1.0529,1.0523,1.0523,1.0551,1.0551,1.0552,1.0553,0,0,0,0,0,0,1.0461,1.0464,1.0468,1.0477,1.048,1.0494,1.0493,1.0494,1.0499,1.0499,1.0508,1.0509,1.0513,1.0523,1.0526,1.053,1.0524,1.0551,1.0551,1.0552,1.0552,1.0553,1.0554,0,0,0,0,0,1.046,1.0467,1.0468,1.047,1.0485,1.0495,1.0497,1.0501,1.0499,1.0503,1.0508,1.0509,1.0528,1.0524,1.0527,1.0532,1.055,1.0551,1.0552,1.0552,1.0553,1.0554,0,0,0,0,0,0,1.0458,1.0468,1.0469,1.0479,1.0486,1.0495,1.05,1.0502,1.0509,1.0508,1.0513,1.0515,1.0525,1.0529,1.0525,1.0542,1.0539,1.054,1.0539,1.054,1.054,1.0539,1.0525,0,0,0,0,0,1.0459,1.0466,1.0475,1.0483,1.0486,1.0493,1.0497,1.05,1.0507,1.051,1.0516,1.0522,1.053,1.0535,1.0542,1.0553,1.0555,1.0557,1.0558,1.0559,1.056,1.0566,1.0567,1.0554,1.0554,1.0554,0,0,1.046,1.0467,1.0471,1.0483,1.0488,1.0496,1.0495,1.0503,1.0509,1.0511,1.0521,1.0525,1.0533,1.0544,1.0549,1.0548,1.0564,1.0559,1.056,1.056,1.0567,1.0568,1.0569,1.0554,1.0554,1.0554,0,0,1.0467,1.0473,1.0481,1.0487,1.0495,1.0499,1.0501,1.051,1.0513,1.0523,1.0525,1.0532,1.0545,1.0551,1.0556,1.0566,1.0567,1.0568,1.0572,1.0578,1.0579,1.058,1.0584,1.0585,1.0569,1.0569,1.0569,0,1.0468,1.048,1.0485,1.0493,1.0498,1.0501,1.0509,1.0514,1.0524,1.0528,1.0527,1.0544,1.0549,1.0561,1.0564,1.0567,1.057,1.0567,1.0578,1.0579,1.058,1.0584,1.0586,1.0569,1.0569,1.0569,1.0569,0,1.0481,1.0489,1.0495,1.0505,1.0511,1.0519,1.0525,1.053,1.0532,1.0537,1.0547,1.0554,1.0563,1.0566,1.0568,1.0579,1.0578,1.0577,1.0575,1.0582,1.0585,1.0587,1.0569,1.0569,1.0569,1.0569,0,0,1.0487,1.0501,1.0503,1.0508,1.0518,1.0524,1.0532,1.0541,1.0546,1.0553,1.0561,1.0572,1.0572,1.0577,1.058,1.0585,1.0593,1.0584,1.0584,1.0586,1.0606,1.0606,1.0608,1.0594,1.0594,1.0594,1.0605,0,1.0496,1.0511,1.0516,1.0529,1.0536,1.0539,1.0547,1.0553,1.0558,1.0565,1.057,1.0578,1.0577,1.058,1.0586,1.0591,1.0597,1.059,1.0601,1.0601,1.0599,1.061,1.061,1.062,1.0607,1.0607,1.0607,0,1.0508,1.0516,1.053,1.0539,1.0543,1.0549,1.0558,1.0565,1.0573,1.0576,1.0582,1.0585,1.0594,1.0591,1.0603,1.0598,1.0603,1.0606,1.0607,1.0608,1.0605,1.0612,1.0623,1.0625,1.0609,1.0609,1.0609,0,1.0512,1.0526,1.0536,1.054,1.0551,1.0556,1.0561,1.0569,1.0574,1.0582,1.0586,1.0594,1.0599,1.0606,1.0611,1.0608,1.0623,1.062,1.0626,1.0626,1.0629,1.0629,1.0642,1.0632,1.0632,1.0632,1.0632,0,1.0521,1.053,1.0538,1.0544,1.0554,1.0559,1.0568,1.0573,1.058,1.0588,1.059,1.0597,1.0603,1.0611,1.0615,1.0625,1.0627,1.063,1.0631,1.063,1.0629,1.0633,1.0632,1.0632,1.0632,1.0632,1.0632,0,1.0527,1.0533,1.0544,1.0554,1.0557,1.0564,1.0572,1.0578,1.0583,1.0592,1.0595,1.0602,1.0611,1.0617,1.0628,1.0631,1.0642,1.0643,1.064,1.064,1.0646,1.0645,1.0662,1.0664,1.0652,1.0652,1.0652,0,1.0533,1.054,1.055,1.0555,1.056,1.0569,1.0575,1.058,1.0586,1.0596,1.0601,1.061,1.0618,1.0633,1.0639,1.0648,1.0649,1.0654,1.0651,1.065,1.065,1.065,1.065,1.0655,1.0655,1.0655,1.0655,0,1.0543,1.0545,1.0554,1.0563,1.057,1.0577,1.0585,1.0589,1.0596,1.0602,1.0612,1.0618,1.063,1.064,1.0649,1.0654,1.0656,1.0657,1.0658,1.0658,1.0656,1.0657,1.0642,1.0656,1.0656,1.0656,1.0656,1.0656,1.0549,1.0555,1.0564,1.0573,1.0579,1.0587,1.0593,1.0599,1.0607,1.0618,1.062,1.063,1.0639,1.0652,1.0657,1.0665,1.0664,1.0667,1.0668,1.0668,1.0669,1.0654,1.0667,1.0667,1.0667,1.0667,1.0667,0,1.0559,1.0565,1.0574,1.0584,1.0592,1.0593,1.0601,1.0607,1.0617,1.0624,1.0632,1.0643,1.0653,1.066,1.067,1.0675,1.0676,1.0677,1.0677,1.0678,1.0669,1.0666,1.0676,1.0676,1.0676,1.0676,1.0676,1.0676,1.0566,1.0576,1.058,1.0594,1.06,1.061,1.0615,1.0622,1.0628,1.0641,1.0649,1.0653,1.0661,1.0671,1.068,1.0682,1.0685,1.0687,1.0689,1.068,1.0679,1.0678,1.0676,1.0687,1.0687,1.0698,1.0698,1.0698]}]]